QPF
0.00 0.00 0.00 0.01 0.01 0.01 0.02 0.02 0.02 0.01 0.02 0.02 0.02 0.02 0.03 0.03 0.02 0.01 0.01 0.01 0.01 0.01 0.01 0.00 0.01 0.01 0.01 0.01 0.01 0.01 0.01 0.01 0.01 0.01 0.02 0.02 0.02 0.02 0.03 0.03 0.03 0.03 0.03 0.03
0.00 0.00 0.00 0.00 0.01 0.01 0.01 0.01 0.01 0.01 0.02 0.02 0.02 0.02 0.03 0.03 0.02 0.02 0.02 0.01 0.01 0.01 0.00 0.00 0.00 0.00 0.01 0.01 0.01 0.01 0.01 0.02 0.02 0.02 0.02 0.03 0.02 0.02 0.02 0.03 0.03 0.03 0.03 0.03
0.00 0.00 0.00 0.01 0.01 0.01 0.01 0.02 0.02 0.02 0.02 0.02 0.01 0.01 0.02 0.03 0.02 0.02 0.02 0.01 0.01 0.01 0.00 0.00 0.00 0.01 0.01 0.01 0.01 0.01 0.01 0.01 0.02 0.03 0.02 0.02 0.03 0.02 0.02 0.02 0.01 0.01 0.01 0.01
0.01 0.00 0.01 0.01 0.01 0.01 0.01 0.01 0.01 0.01 0.01 0.01 0.01 0.01 0.01 0.02 0.03 0.02 0.02 0.01 0.01 0.01 0.00 0.00 0.00 0.01 0.01 0.01 0.01 0.01 0.01 0.02 0.02 0.02 0.02 0.02 0.03 0.02 0.02 0.02 0.01 0.01 0.01 0.01
0.02 0.01 0.01 0.00 0.00 0.01 0.02 0.01 0.01 0.01 0.01 0.00 0.00 0.00 0.01 0.01 0.02 0.02 0.02 0.01 0.01 0.01 0.00 0.00 0.01 0.02 0.01 0.01 0.02 0.02 0.02 0.01 0.01 0.01 0.02 0.02 0.02 0.01 0.01 0.01 0.00 0.00 0.00 0.00
0.02 0.02 0.01 0.01 0.01 0.01 0.01 0.01 0.01 0.01 0.01 0.00 0.00 0.01 0.01 0.01 0.00 0.01 0.01 0.01 0.01 0.01 0.00 0.01 0.02 0.03 0.02 0.01 0.02 0.01 0.01 0.01 0.01 0.01 0.01 0.02 0.01 0.01 0.01 0.00 0.00 0.00 0.00 0.00
0.02 0.02 0.01 0.01 0.00 0.00 0.01 0.02 0.01 0.01 0.01 0.01 0.01 0.01 0.01 0.01 0.01 0.01 0.01 0.01 0.01 0.00 0.01 0.01 0.02 0.02 0.02 0.02 0.02 0.01 0.01 0.01 0.01 0.01 0.01 0.01 0.01 0.01 0.01 0.01 0.00 0.00 0.00 0.00
0.02 0.03 0.02 0.01 0.01 0.01 0.02 0.01 0.01 0.00 0.00 0.01 0.01 0.01 0.00 0.00 0.00 0.00 0.00 0.01 0.01 0.00 0.00 0.01 0.01 0.01 0.01 0.02 0.02 0.01 0.01 0.01 0.01 0.01 0.01 0.01 0.01 0.01 0.01 0.01 0.01 0.01 0.00 0.00
0.02 0.02 0.01 0.01 0.01 0.01 0.01 0.01 0.01 0.01 0.01 0.01 0.00 0.00 0.00 0.00 0.00 0.00 0.01 0.01 0.01 0.00 0.00 0.00 0.00 0.00 0.00 0.01 0.01 0.01 0.01 0.01 0.01 0.01 0.01 0.01 0.01 0.01 0.01 0.01 0.01 0.01 0.01 0.01
0.02 0.01 0.01 0.01 0.01 0.01 0.01 0.01 0.01 0.01 0.01 0.01 0.01 0.01 0.01 0.01 0.01 0.01 0.01 0.01 0.01 0.00 0.00 0.00 0.00 0.00 0.00 0.01 0.01 0.01 0.01 0.01 0.01 0.01 0.02 0.01 0.01 0.02 0.02 0.02 0.02 0.02 0.01 0.01
0.02 0.01 0.01 0.01 0.01 0.01 0.01 0.01 0.01 0.01 0.01 0.01 0.01 0.01 0.01 0.01 0.01 0.01 0.01 0.01 0.01 0.01 0.01 0.01 0.01 0.00 0.00 0.00 0.01 0.01 0.01 0.01 0.01 0.01 0.02 0.02 0.02 0.02 0.02 0.02 0.03 0.03 0.03 0.03
0.01 0.01 0.01 0.01 0.01 0.01 0.02 0.02 0.02 0.02 0.02 0.02 0.02 0.02 0.01 0.01 0.01 0.01 0.01 0.01 0.01 0.01 0.01 0.01 0.01 0.01 0.01 0.01 0.01 0.01 0.01 0.01 0.01 0.01 0.02 0.02 0.02 0.03 0.03 0.02 0.02 0.02 0.03 0.03
0.01 0.01 0.01 0.01 0.01 0.01 0.01 0.01 0.01 0.01 0.01 0.01 0.01 0.01 0.01 0.00 0.00 0.00 0.00 0.00 0.01 0.01 0.01 0.01 0.00 0.00 0.01 0.01 0.00 0.01 0.01 0.01 0.01 0.01 0.02 0.02 0.02 0.03 0.03 0.02 0.02 0.02 0.02 0.02
0.00 0.01 0.00 0.00 0.00 0.00 0.01 0.01 0.00 0.00 0.00 0.00 0.00 0.00 0.00 0.00 0.00 0.00 0.00 0.00 0.00 0.00 0.00 0.00 0.00 0.00 0.00 0.00 0.00 0.01 0.01 0.01 0.01 0.01 0.02 0.02 0.02 0.03 0.03 0.03 0.03 0.02 0.02 0.02
0.00 0.00 0.00 0.00 0.00 0.00 0.00 0.00 0.00 0.00 0.00 0.00 0.00 0.00 0.00 0.00 0.00 0.00 0.00 0.00 0.00 0.00 0.00 0.00 0.00 0.00 0.00 0.00 0.00 0.01 0.01 0.01 0.01 0.01 0.02 0.01 0.02 0.02 0.03 0.03 0.03 0.03 0.02 0.03
0.00 0.00 0.00 0.00 0.00 0.00 0.00 0.00 0.00 0.00 0.00 0.00 0.00 0.00 0.00 0.00 0.00 0.00 0.00 0.00 0.00 0.00 0.00 0.00 0.00 0.00 0.00 0.00 0.01 0.01 0.01 0.01 0.01 0.01 0.01 0.01 0.02 0.02 0.03 0.03 0.03 0.03 0.03 0.03
0.00 0.00 0.00 0.00 0.00 0.00 0.00 0.00 0.00 0.00 0.00 0.00 0.00 0.00 0.00 0.00 0.00 0.00 0.00 0.00 0.00 0.00 0.00 0.00 0.00 0.00 0.00 0.00 0.01 0.01 0.01 0.01 0.02 0.02 0.02 0.02 0.02 0.02 0.03 0.03 0.03 0.03 0.03 0.03
0.00 0.00 0.00 0.00 0.00 0.00 0.00 0.00 0.00 0.00 0.00 0.00 0.00 0.00 0.00 0.00 0.00 0.00 0.00 0.00 0.00 0.00 0.00 0.00 0.00 0.00 0.00 0.00 0.01 0.01 0.01 0.02 0.02 0.02 0.02 0.02 0.02 0.02 0.03 0.03 0.03 0.04 0.03 0.03
0.00 0.00 0.00 0.00 0.00 0.00 0.00 0.00 0.00 0.00 0.00 0.00 0.00 0.00 0.00 0.00 0.00 0.00 0.00 0.00 0.00 0.00 0.00 0.00 0.00 0.00 0.00 0.00 0.01 0.01 0.01 0.01 0.02 0.02 0.02 0.02 0.02 0.02 0.02 0.03 0.03 0.04 0.04 0.04
0.00 0.00 0.00 0.00 0.00 0.00 0.00 0.00 0.00 0.00 0.00 0.00 0.00 0.00 0.00 0.00 0.00 0.00 0.00 0.00 0.00 0.00 0.00 0.00 0.00 0.00 0.00 0.00 0.01 0.01 0.01 0.01 0.01 0.02 0.02 0.02 0.02 0.02 0.02 0.03 0.03 0.03 0.04 0.04
0.00 0.00 0.00 0.00 0.00 0.00 0.00 0.00 0.00 0.00 0.00 0.00 0.00 0.00 0.00 0.00 0.00 0.00 0.00 0.00 0.00 0.00 0.00 0.00 0.00 0.01 0.01 0.01 0.01 0.01 0.01 0.01 0.01 0.01 0.01 0.01 0.02 0.02 0.02 0.02 0.02 0.03 0.03 0.03
0.00 0.00 0.00 0.00 0.00 0.00 0.00 0.00 0.00 0.00 0.00 0.00 0.00 0.00 0.00 0.00 0.00 0.00 0.00 0.00 0.00 0.00 0.01 0.01 0.01 0.01 0.01 0.02 0.02 0.01 0.01 0.01 0.01 0.01 0.01 0.01 0.01 0.02 0.01 0.01 0.01 0.02 0.02 0.03
0.00 0.00 0.00 0.01 0.01 0.00 0.00 0.00 0.00 0.00 0.00 0.00 0.00 0.00 0.00 0.00 0.00 0.01 0.00 0.00 0.00 0.01 0.01 0.01 0.01 0.02 0.02 0.02 0.02 0.02 0.01 0.01 0.01 0.01 0.01 0.01 0.01 0.01 0.02 0.01 0.01 0.01 0.01 0.02
0.00 0.00 0.00 0.01 0.01 0.01 0.00 0.00 0.00 0.00 0.00 0.00 0.00 0.00 0.00 0.00 0.00 0.00 0.00 0.01 0.01 0.01 0.01 0.01 0.01 0.02 0.02 0.02 0.02 0.02 0.02 0.01 0.01 0.01 0.01 0.01 0.01 0.01 0.02 0.02 0.02 0.02 0.02 0.02
0.00 0.00 0.01 0.01 0.01 0.01 0.00 0.00 0.00 0.00 0.00 0.00 0.00 0.00 0.00 0.00 0.00 0.01 0.00 0.00 0.01 0.01 0.01 0.01 0.01 0.01 0.02 0.01 0.01 0.01 0.01 0.01 0.01 0.01 0.01 0.01 0.01 0.01 0.02 0.02 0.02 0.02 0.03 0.03
0.00 0.01 0.01 0.01 0.01 0.01 0.01 0.01 0.01 0.00 0.00 0.00 0.00 0.00 0.00 0.00 0.00 0.01 0.01 0.00 0.01 0.01 0.01 0.01 0.01 0.01 0.01 0.01 0.01 0.01 0.01 0.01 0.01 0.01 0.01 0.01 0.01 0.01 0.02 0.02 0.02 0.02 0.03 0.03
0.00 0.01 0.01 0.01 0.01 0.01 0.01 0.01 0.01 0.01 0.00 0.00 0.00 0.00 0.00 0.01 0.01 0.01 0.01 0.01 0.01 0.01 0.01 0.01 0.01 0.01 0.01 0.01 0.01 0.01 0.01 0.01 0.01 0.01 0.01 0.01 0.01 0.01 0.01 0.02 0.02 0.02 0.03 0.03
MSLP
1023.73 1023.63 1023.47 1023.26 1022.98 1022.60 1022.11 1021.49 1020.75 1019.88 1018.92 1017.92 1016.91 1015.97 1015.15 1014.47 1013.97 1013.65 1013.49 1013.46 1013.52 1013.60 1013.68 1013.72 1013.67 1013.54 1013.32 1013.01 1012.61 1012.16 1011.65 1011.10 1010.51 1009.89 1009.25 1008.59 1007.93 1007.27 1006.64 1006.05 1005.53 1005.09 1004.77 1004.57
1023.27 1023.00 1022.61 1022.15 1021.61 1021.02 1020.37 1019.68 1018.95 1018.18 1017.39 1016.60 1015.82 1015.10 1014.46 1013.93 1013.52 1013.24 1013.09 1013.04 1013.09 1013.17 1013.28 1013.36 1013.38 1013.33 1013.20 1012.96 1012.64 1012.23 1011.75 1011.21 1010.64 1010.03 1009.41 1008.78 1008.16 1007.54 1006.94 1006.37 1005.84 1005.37 1004.98 1004.69
1022.73 1022.29 1021.71 1021.01 1020.25 1019.47 1018.69 1017.95 1017.24 1016.58 1015.96 1015.38 1014.84 1014.34 1013.90 1013.51 1013.20 1012.97 1012.83 1012.77 1012.79 1012.86 1012.96 1013.05 1013.11 1013.10 1013.01 1012.82 1012.53 1012.15 1011.69 1011.16 1010.60 1010.01 1009.42 1008.83 1008.25 1007.69 1007.14 1006.61 1006.10 1005.62 1005.18 1004.81
1022.08 1021.50 1020.76 1019.89 1018.96 1018.04 1017.17 1016.40 1015.74 1015.19 1014.73 1014.35 1014.02 1013.73 1013.45 1013.20 1012.98 1012.79 1012.66 1012.58 1012.57 1012.60 1012.68 1012.76 1012.82 1012.83 1012.76 1012.59 1012.32 1011.95 1011.49 1010.97 1010.42 1009.85 1009.29 1008.74 1008.22 1007.71 1007.22 1006.73 1006.25 1005.77 1005.29 1004.85
1021.24 1020.58 1019.73 1018.75 1017.72 1016.73 1015.83 1015.07 1014.47 1014.03 1013.72 1013.50 1013.35 1013.22 1013.09 1012.94 1012.78 1012.62 1012.48 1012.37 1012.32 1012.32 1012.36 1012.42 1012.47 1012.48 1012.43 1012.27 1012.01 1011.65 1011.20 1010.69 1010.14 1009.59 1009.05 1008.54 1008.06 1007.61 1007.16 1006.71 1006.25 1005.76 1005.26 1004.77
1020.16 1019.45 1018.56 1017.54 1016.49 1015.49 1014.61 1013.90 1013.37 1013.03 1012.84 1012.76 1012.74 1012.72 1012.69 1012.61 1012.49 1012.34 1012.19 1012.06 1011.97 1011.94 1011.95 1012.00 1012.04 1012.06 1012.01 1011.87 1011.63 1011.28 1010.84 1010.34 1009.81 1009.27 1008.75 1008.26 1007.81 1007.38 1006.96 1006.54 1006.08 1005.60 1005.08 1004.55
1018.73 1018.04 1017.16 1016.18 1015.17 1014.23 1013.42 1012.78 1012.35 1012.10 1012.01 1012.02 1012.08 1012.14 1012.16 1012.12 1012.02 1011.88 1011.72 1011.57 1011.47 1011.42 1011.42 1011.47 1011.52 1011.56 1011.53 1011.42 1011.20 1010.87 1010.45 1009.97 1009.44 1008.90 1008.39 1007.90 1007.46 1007.04 1006.63 1006.21 1005.77 1005.28 1004.76 1004.21
1016.94 1016.30 1015.50 1014.61 1013.71 1012.87 1012.17 1011.64 1011.30 1011.14 1011.12 1011.19 1011.30 1011.40 1011.45 1011.43 1011.34 1011.21 1011.05 1010.91 1010.81 1010.77 1010.79 1010.85 1010.94 1011.00 1011.01 1010.92 1010.74 1010.44 1010.04 1009.56 1009.04 1008.50 1007.97 1007.48 1007.02 1006.60 1006.18 1005.77 1005.32 1004.84 1004.33 1003.78
1014.81 1014.27 1013.59 1012.84 1012.08 1011.39 1010.82 1010.41 1010.17 1010.08 1010.11 1010.22 1010.36 1010.47 1010.54 1010.53 1010.47 1010.35 1010.22 1010.11 1010.04 1010.04 1010.10 1010.20 1010.32 1010.42 1010.46 1010.42 1010.26 1009.98 1009.60 1009.13 1008.61 1008.06 1007.52 1007.00 1006.52 1006.07 1005.65 1005.22 1004.78 1004.31 1003.82 1003.29
1012.43 1012.00 1011.47 1010.89 1010.32 1009.80 1009.38 1009.10 1008.95 1008.92 1009.00 1009.13 1009.28 1009.41 1009.48 1009.50 1009.46 1009.39 1009.31 1009.25 1009.24 1009.29 1009.40 1009.55 1009.71 1009.85 1009.92 1009.90 1009.77 1009.51 1009.13 1008.67 1008.14 1007.57 1007.01 1006.47 1005.96 1005.49 1005.04 1004.61 1004.17 1003.72 1003.25 1002.76
1009.92 1009.62 1009.27 1008.88 1008.50 1008.17 1007.91 1007.75 1007.70 1007.74 1007.85 1008.00 1008.16 1008.29 1008.39 1008.43 1008.44 1008.42 1008.41 1008.42 1008.48 1008.59 1008.75 1008.94 1009.14 1009.30 1009.39 1009.39 1009.26 1009.00 1008.63 1008.16 1007.62 1007.05 1006.46 1005.90 1005.36 1004.87 1004.40 1003.96 1003.52 1003.07 1002.62 1002.15
1007.44 1007.29 1007.11 1006.92 1006.74 1006.60 1006.50 1006.47 1006.50 1006.60 1006.75 1006.92 1007.08 1007.23 1007.35 1007.44 1007.49 1007.54 1007.60 1007.68 1007.80 1007.97 1008.17 1008.39 1008.60 1008.77 1008.87 1008.85 1008.72 1008.46 1008.09 1007.61 1007.07 1006.48 1005.89 1005.30 1004.75 1004.23 1003.74 1003.28 1002.83 1002.38 1001.92 1001.46
1005.13 1005.13 1005.13 1005.14 1005.15 1005.18 1005.24 1005.33 1005.46 1005.61 1005.79 1005.98 1006.16 1006.32 1006.46 1006.58 1006.69 1006.80 1006.91 1007.05 1007.23 1007.43 1007.66 1007.89 1008.09 1008.25 1008.32 1008.29 1008.14 1007.88 1007.50 1007.03 1006.49 1005.90 1005.31 1004.72 1004.15 1003.61 1003.09 1002.60 1002.12 1001.64 1001.15 1000.65
1003.11 1003.25 1003.42 1003.60 1003.79 1003.99 1004.19 1004.39 1004.60 1004.81 1005.02 1005.22 1005.41 1005.59 1005.75 1005.90 1006.05 1006.19 1006.35 1006.53 1006.73 1006.94 1007.17 1007.38 1007.57 1007.69 1007.74 1007.69 1007.53 1007.26 1006.89 1006.43 1005.90 1005.33 1004.75 1004.16 1003.58 1003.02 1002.47 1001.94 1001.41 1000.86 1000.30 999.72
1001.43 1001.69 1002.01 1002.35 1002.70 1003.04 1003.36 1003.66 1003.94 1004.19 1004.43 1004.65 1004.84 1005.02 1005.20 1005.36 1005.52 1005.69 1005.86 1006.05 1006.25 1006.46 1006.66 1006.84 1006.99 1007.08 1007.10 1007.03 1006.87 1006.61 1006.26 1005.83 1005.34 1004.80 1004.24 1003.66 1003.08 1002.49 1001.91 1001.31 1000.70 1000.07 999.41 998.71
1000.09 1000.46 1000.89 1001.36 1001.84 1002.29 1002.71 1003.09 1003.42 1003.71 1003.96 1004.18 1004.38 1004.56 1004.72 1004.89 1005.05 1005.21 1005.38 1005.56 1005.74 1005.92 1006.09 1006.24 1006.35 1006.41 1006.41 1006.34 1006.18 1005.95 1005.63 1005.25 1004.81 1004.31 1003.78 1003.22 1002.64 1002.03 1001.40 1000.74 1000.04 999.30 998.52 997.69
999.07 999.52 1000.04 1000.60 1001.17 1001.70 1002.19 1002.61 1002.98 1003.28 1003.54 1003.75 1003.94 1004.10 1004.25 1004.40 1004.55 1004.69 1004.84 1005.00 1005.15 1005.30 1005.43 1005.55 1005.63 1005.68 1005.68 1005.61 1005.48 1005.29 1005.03 1004.70 1004.32 1003.88 1003.39 1002.85 1002.27 1001.64 1000.96 1000.23 999.45 998.60 997.70 996.75
998.32 998.81 999.39 1000.01 1000.62 1001.19 1001.71 1002.15 1002.52 1002.82 1003.06 1003.26 1003.43 1003.57 1003.70 1003.83 1003.96 1004.08 1004.21 1004.34 1004.47 1004.59 1004.70 1004.79 1004.87 1004.91 1004.92 1004.88 1004.79 1004.64 1004.44 1004.18 1003.86 1003.47 1003.02 1002.51 1001.94 1001.29 1000.58 999.80 998.94 998.02 997.02 995.96
997.77 998.30 998.89 999.52 1000.13 1000.70 1001.20 1001.63 1001.97 1002.25 1002.47 1002.65 1002.79 1002.91 1003.02 1003.13 1003.24 1003.36 1003.47 1003.58 1003.70 1003.80 1003.91 1004.00 1004.07 1004.12 1004.15 1004.15 1004.10 1004.01 1003.86 1003.66 1003.40 1003.06 1002.66 1002.18 1001.62 1000.98 1000.25 999.44 998.55 997.57 996.53 995.41
997.39 997.91 998.49 999.09 999.67 1000.19 1000.65 1001.02 1001.33 1001.56 1001.74 1001.89 1002.00 1002.11 1002.21 1002.31 1002.42 1002.53 1002.65 1002.76 1002.88 1002.99 1003.09 1003.19 1003.28 1003.35 1003.41 1003.43 1003.43 1003.38 1003.28 1003.13 1002.91 1002.63 1002.26 1001.81 1001.28 1000.66 999.95 999.15 998.26 997.28 996.23 995.12
997.12 997.63 998.17 998.71 999.22 999.67 1000.05 1000.35 1000.59 1000.77 1000.90 1001.01 1001.11 1001.21 1001.31 1001.42 1001.54 1001.66 1001.79 1001.92 1002.05 1002.18 1002.30 1002.41 1002.52 1002.61 1002.68 1002.74 1002.76 1002.74 1002.68 1002.57 1002.39 1002.14 1001.81 1001.41 1000.91 1000.33 999.66 998.90 998.06 997.13 996.13 995.06
996.95 997.42 997.91 998.38 998.80 999.15 999.44 999.65 999.81 999.93 1000.02 1000.10 1000.18 1000.28 1000.39 1000.51 1000.65 1000.80 1000.96 1001.11 1001.27 1001.41 1001.55 1001.68 1001.80 1001.90 1001.99 1002.06 1002.09 1002.09 1002.05 1001.96 1001.81 1001.60 1001.31 1000.95 1000.51 999.99 999.39 998.70 997.94 997.09 996.18 995.20
996.86 997.29 997.72 998.10 998.42 998.67 998.86 998.99 999.07 999.13 999.18 999.23 999.31 999.40 999.52 999.67 999.83 1000.01 1000.19 1000.37 1000.55 1000.71 1000.86 1001.00 1001.13 1001.24 1001.33 1001.39 1001.43 1001.44 1001.41 1001.34 1001.21 1001.03 1000.79 1000.48 1000.11 999.66 999.14 998.55 997.88 997.14 996.33 995.46
996.85 997.25 997.60 997.90 998.13 998.28 998.38 998.42 998.44 998.45 998.46 998.49 998.56 998.66 998.79 998.96 999.14 999.33 999.53 999.73 999.92 1000.09 1000.24 1000.38 1000.50 1000.61 1000.69 1000.76 1000.80 1000.81 1000.79 1000.73 1000.63 1000.49 1000.29 1000.04 999.74 999.37 998.94 998.45 997.89 997.25 996.55 995.79
996.93 997.29 997.59 997.81 997.95 998.02 998.04 998.02 997.98 997.95 997.93 997.95 998.01 998.11 998.25 998.42 998.60 998.80 999.01 999.20 999.38 999.54 999.69 999.81 999.92 1000.02 1000.09 1000.15 1000.19 1000.21 1000.21 1000.17 1000.11 1000.01 999.86 999.68 999.44 999.15 998.81 998.41 997.94 997.40 996.79 996.12
997.11 997.43 997.67 997.83 997.90 997.91 997.87 997.80 997.73 997.67 997.64 997.64 997.69 997.78 997.91 998.07 998.24 998.43 998.60 998.78 998.93 999.07 999.20 999.30 999.40 999.48 999.55 999.61 999.66 999.69 999.71 999.71 999.68 999.63 999.54 999.41 999.24 999.02 998.75 998.42 998.02 997.56 997.02 996.41
997.41 997.69 997.88 997.98 998.00 997.97 997.89 997.79 997.70 997.62 997.58 997.57 997.60 997.68 997.78 997.91 998.05 998.19 998.33 998.45 998.57 998.67 998.76 998.84 998.92 998.99 999.06 999.13 999.20 999.26 999.31 999.35 999.37 999.36 999.33 999.25 999.13 998.97 998.74 998.46 998.11 997.69 997.20 996.64
Thickness
5466 5475 5476 5476 5474 5470 5466 5471 5472 5488 5493 5499 5498 5494 5490 5488 5484 5482 5479 5476 5472 5468 5464 5462 5460 5458 5457 5456 5456 5456 5455 5455 5455 5455 5456 5457 5457 5458 5459 5460 5461 5461 5462 5463
5453 5467 5467 5467 5471 5471 5470 5470 5472 5476 5481 5492 5490 5487 5482 5478 5475 5472 5470 5466 5461 5458 5455 5452 5449 5448 5447 5446 5446 5446 5445 5445 5445 5445 5446 5446 5447 5448 5449 5449 5449 5450 5451 5452
5448 5456 5454 5457 5472 5471 5470 5473 5471 5469 5478 5480 5477 5475 5472 5469 5467 5463 5460 5456 5451 5448 5444 5441 5439 5438 5436 5436 5436 5436 5435 5435 5435 5436 5436 5436 5437 5438 5438 5438 5439 5439 5440 5441
5432 5437 5438 5475 5478 5475 5469 5470 5469 5469 5470 5468 5465 5464 5462 5460 5456 5453 5449 5445 5441 5437 5435 5432 5430 5428 5427 5427 5426 5426 5425 5425 5425 5425 5426 5426 5426 5427 5428 5428 5428 5429 5429 5430
5423 5427 5446 5467 5466 5462 5456 5457 5463 5461 5460 5457 5456 5454 5451 5449 5446 5442 5439 5436 5432 5428 5425 5423 5421 5419 5418 5417 5417 5416 5416 5415 5415 5415 5415 5416 5416 5417 5417 5418 5418 5418 5419 5419
5415 5417 5430 5457 5451 5450 5448 5444 5450 5450 5447 5444 5442 5436 5439 5438 5436 5433 5430 5427 5423 5420 5417 5414 5412 5410 5409 5408 5407 5407 5407 5406 5406 5406 5406 5406 5406 5407 5407 5407 5408 5409 5409 5409
5406 5411 5431 5440 5437 5439 5433 5436 5438 5437 5434 5432 5428 5426 5427 5427 5425 5422 5419 5417 5414 5411 5408 5405 5403 5401 5399 5398 5397 5398 5398 5397 5397 5397 5397 5397 5397 5397 5397 5398 5398 5399 5399 5399
5401 5403 5420 5425 5423 5422 5422 5426 5426 5424 5422 5420 5418 5418 5416 5415 5413 5411 5408 5407 5404 5401 5398 5396 5394 5392 5390 5389 5389 5389 5389 5389 5388 5389 5389 5389 5388 5388 5388 5388 5388 5388 5389 5389
5409 5416 5419 5417 5415 5415 5416 5414 5414 5412 5411 5409 5408 5406 5405 5404 5402 5400 5399 5397 5395 5391 5389 5387 5385 5383 5381 5381 5380 5380 5380 5380 5380 5381 5380 5380 5379 5379 5379 5378 5378 5379 5379 5379
5404 5411 5413 5410 5409 5409 5407 5405 5405 5403 5401 5400 5398 5396 5395 5393 5391 5390 5388 5386 5385 5383 5380 5378 5376 5374 5373 5372 5372 5371 5371 5371 5372 5372 5372 5371 5371 5370 5370 5369 5368 5369 5368 5368
5395 5402 5404 5404 5401 5400 5398 5397 5396 5395 5393 5390 5388 5387 5385 5382 5381 5379 5378 5376 5375 5372 5371 5369 5367 5366 5365 5364 5363 5362 5362 5363 5363 5364 5363 5362 5362 5361 5361 5360 5359 5359 5358 5356
5395 5398 5394 5396 5395 5393 5390 5388 5387 5385 5383 5382 5379 5377 5376 5373 5372 5370 5369 5367 5365 5363 5362 5360 5359 5358 5357 5356 5355 5354 5354 5354 5354 5354 5354 5353 5353 5353 5353 5352 5352 5351 5349 5347
5393 5393 5389 5389 5387 5385 5382 5380 5379 5376 5374 5372 5370 5369 5367 5365 5363 5361 5360 5359 5357 5355 5354 5352 5351 5350 5349 5348 5347 5346 5345 5345 5345 5345 5345 5345 5344 5344 5344 5344 5343 5342 5341 5340
5386 5383 5380 5379 5376 5375 5373 5372 5370 5368 5366 5363 5361 5359 5357 5355 5354 5352 5351 5350 5349 5347 5346 5344 5344 5343 5342 5341 5339 5338 5338 5337 5337 5337 5337 5337 5336 5335 5334 5333 5333 5333 5333 5332
5376 5372 5370 5368 5366 5364 5363 5361 5358 5356 5355 5353 5351 5349 5347 5345 5343 5342 5342 5342 5341 5339 5338 5337 5336 5335 5335 5334 5332 5331 5330 5330 5329 5329 5329 5329 5328 5327 5325 5324 5324 5323 5324 5324
5366 5363 5361 5358 5356 5354 5352 5350 5348 5347 5345 5343 5341 5339 5338 5335 5334 5333 5332 5332 5331 5330 5330 5329 5328 5328 5328 5327 5325 5324 5323 5323 5323 5323 5322 5322 5320 5318 5317 5316 5316 5315 5315 5315
5355 5353 5350 5348 5347 5345 5344 5342 5341 5339 5336 5334 5332 5330 5328 5326 5324 5323 5323 5323 5322 5322 5322 5321 5321 5321 5320 5320 5319 5318 5317 5316 5316 5315 5315 5314 5312 5310 5309 5308 5308 5307 5306 5306
5353 5349 5346 5343 5341 5338 5337 5335 5332 5330 5327 5326 5323 5321 5318 5316 5315 5314 5314 5314 5313 5313 5314 5314 5314 5314 5313 5313 5312 5311 5311 5310 5308 5307 5307 5306 5305 5303 5302 5301 5299 5299 5298 5298
5344 5341 5338 5336 5333 5331 5328 5326 5324 5322 5319 5317 5315 5312 5310 5308 5307 5306 5305 5305 5304 5305 5306 5306 5308 5306 5305 5305 5305 5304 5303 5302 5301 5300 5300 5300 5298 5296 5295 5293 5292 5291 5290 5290
5335 5333 5330 5327 5324 5322 5319 5317 5315 5313 5311 5309 5306 5304 5301 5300 5299 5298 5297 5297 5297 5298 5299 5300 5299 5299 5298 5298 5299 5298 5297 5296 5295 5294 5293 5292 5291 5289 5287 5286 5285 5284 5283 5283
5326 5324 5321 5317 5315 5313 5311 5309 5306 5305 5303 5301 5299 5296 5294 5292 5291 5290 5289 5291 5292 5292 5293 5293 5292 5292 5292 5292 5292 5291 5290 5289 5288 5287 5286 5284 5283 5282 5280 5279 5278 5277 5276 5276
5318 5316 5313 5310 5308 5306 5304 5301 5299 5297 5295 5294 5291 5289 5286 5285 5284 5284 5284 5285 5286 5287 5286 5286 5286 5286 5286 5286 5285 5284 5283 5282 5281 5280 5278 5277 5275 5274 5273 5272 5271 5270 5270 5270
5312 5310 5307 5304 5301 5299 5297 5294 5292 5290 5288 5287 5285 5283 5281 5280 5279 5278 5279 5279 5279 5280 5279 5279 5280 5281 5281 5279 5278 5277 5276 5275 5274 5273 5271 5270 5269 5267 5266 5266 5265 5265 5264 5264
5305 5302 5299 5296 5293 5290 5289 5288 5286 5285 5283 5281 5280 5278 5276 5275 5274 5273 5273 5274 5274 5274 5273 5274 5275 5276 5275 5272 5271 5270 5269 5268 5267 5266 5265 5263 5262 5261 5261 5260 5260 5260 5260 5260
5297 5294 5292 5288 5286 5285 5284 5282 5280 5278 5276 5275 5274 5273 5272 5270 5269 5269 5267 5267 5268 5267 5267 5268 5269 5269 5267 5265 5264 5263 5263 5262 5261 5259 5258 5258 5257 5256 5256 5255 5254 5254 5254 5255
5290 5288 5287 5285 5283 5282 5279 5276 5274 5273 5271 5270 5269 5268 5267 5265 5264 5263 5262 5261 5261 5261 5260 5260 5260 5261 5260 5259 5258 5257 5256 5256 5255 5254 5253 5252 5252 5251 5251 5251 5250 5250 5250 5250
5284 5283 5281 5279 5277 5276 5274 5271 5269 5268 5267 5265 5264 5262 5261 5260 5259 5258 5257 5256 5255 5254 5254 5254 5254 5254 5253 5253 5252 5251 5251 5250 5250 5249 5249 5248 5248 5247 5247 5247 5246 5246 5246 5246